MAZAALAI (NUMSAT-1) (42822 NORAD) Tracking and Keplerian Element Data

This shows tracking and keplerian element data for the satellite.

Feedback or suggestion? Click here.




ElementValue
Catalog42822
NameMAZAALAI (NUMSAT-1)
Epoch Orbit7730
Epoch Day317.49482594
Epoch Year2018
RAAN318.0164
Inclination51.6342
Eccentricity0.0004369
Argument of Perigee40.2373
Mean Anonmoly319.895
Mean Motion15.75601309
Decay Rate0.00041416
L11 42822U 98067MW 18317.49482594 .00041416 00000-0 26820-3 0 9990
L22 42822 51.6342 318.0164 0004369 40.2373 319.8950 15.75601309 77304

Live tracking and technical data element details for MAZAALAI (NUMSAT-1) (NORAD 42822). MAZAALAI (NUMSAT-1) can be tracked NOW for your location showing map with azimuth and elevation plus other details from your city location.

Track the satellite on the map from your city or location and see movement details for azimuth, elevation, latitude, longitude, range, height, and movement on the map or in text.







IsCatalogInMostPopularTable: catalog: 42822, numindb: 151
Update: records affected: 1



GetName: 42822 MAZAALAI (NUMSAT-1)

Hit Count: updated at: Wed, 14 Nov 2018 16:08:30 GMT